Location: Unspecified
(44.0025°N, 0.0000°E)
Time: 17:13:27
(UTC+00:00)

NOAA 17 DEB - Visible Passes

Search period start: 04 April 2026 00:00
Search period end: 14 April 2026 00:00
Orbit: 743 x 766 km, 98.8° (Epoch: 29 March)

Date Brightness Start Highest point End Pass type
(mag) Time Alt. Az. Time Alt. Az. Time Alt. Az.
4 Apr ? 03:07:04 10° NE 03:10:57 22° E 03:14:49 10° SE visible
4 Apr ? 04:45:09 10° N 04:49:53 45° WNW 04:54:35 10° SW visible
5 Apr ? 04:05:01 10° NNE 04:10:01 79° ESE 04:14:58 10° S visible
6 Apr ? 03:25:24 10° NNE 03:29:54 33° E 03:34:20 10° SSE visible
7 Apr ? 02:46:56 10° ENE 02:49:32 14° E 02:52:06 10° ESE visible
7 Apr ? 04:23:48 10° N 04:28:46 71° WNW 04:33:42 10° SSW visible
8 Apr ? 03:43:54 10° NNE 03:48:44 49° E 03:53:31 10° S visible
9 Apr ? 03:04:43 10° NE 03:08:27 21° E 03:12:10 10° SE visible
9 Apr ? 04:42:39 10° N 04:47:26 48° WNW 04:52:10 10° SW visible
10 Apr ? 04:02:30 10° NNE 04:07:29 73° ESE 04:12:26 10° S visible
11 Apr ? 03:22:54 10° NE 03:27:17 31° E 03:31:38 10° SSE visible
12 Apr ? 02:44:35 10° ENE 02:46:51 13° E 02:49:05 10° ESE visible
12 Apr ? 04:21:09 10° N 04:26:08 77° WNW 04:31:05 10° SSW visible
13 Apr ? 03:41:15 10° NNE 03:46:02 45° E 03:50:46 10° S visible
